Home   Weather   Bijar   Past weeks

Flag for Iran Past Weather in Bijar, Iran — Yesterday and Last 2 Weeks

Now
57 °F

Passing clouds.


Feels Like: 57 °F
Forecast: 28 / 51 °F
Wind: 5 mph from South

Location: Sanandaj Airport

Current Time: Dec 5, 2016 at 4:10:23 pm

Latest Report: Dec 5, 2016 at 2:30 pm


Visibility: N/A

Pressure: 30.09 "Hg (23.92 "Hg at 1927m altitude)

Humidity: 41%

Dew Point: 34 °F

Location of BijarLocation

Past Weather in Bijar — Graph

°F

Bijar Temperature Yesterday

Maximum temperature yesterday: 59 °F (at 3:30 pm)
Minimum temperature yesterday: 27 °F (at 7:30 am)
Average temperature yesterday: 45 °F

High & Low Weather Summary for the Past Weeks

 TemperatureHumidityPressure
High59 °F (Nov 29, 2:30 pm)93% (Dec 1, 6:30 am)30.45 "Hg (Dec 1, 6:30 am)
Low9 °F (Nov 25, 7:30 am)6% (Dec 4, 10:30 am)29.71 "Hg (Dec 2, 6:30 am)
Average40 °F43%30.22 "Hg
* Reported Nov 20 2:30 pm — Dec 5 2:30 pm, Bijar, Weather by CustomWeather, © 2016

Note: Actual official high and low records may vary slightly from our data, if they occured in-between our weather recording intervals... More about our weather records

Advertising

Bijar Weather History for the Previous 24 Hours

Scroll right to see more
 ConditionsComfort  
Time TempWeatherWind HumidityBarometerVisibility
2:30 pm
Mon, Dec 5
57 °FPassing clouds.5 mph41%30.09 "HgN/A
1:30 pm54 °FPassing clouds.5 mph38%30.12 "HgN/A
1:00 pm52 °FScattered clouds.5 mph38%30.15 "HgN/A
12:30 pm46 °FScattered clouds.No wind46%30.15 "HgN/A
12:00 pm48 °FScattered clouds.No wind46%30.18 "HgN/A
11:30 am46 °FScattered clouds.No wind53%30.21 "HgN/A
11:00 am41 °FPartly sunny.No wind66%30.24 "HgN/A
10:30 am37 °FScattered clouds.No wind75%30.24 "HgN/A
10:00 am36 °FScattered clouds.2 mph81%30.24 "HgN/A
9:30 am34 °FScattered clouds.2 mph87%30.24 "HgN/A
9:00 am32 °FScattered clouds.No wind87%30.24 "HgN/A
8:30 am32 °FPassing clouds.2 mph87%30.24 "HgN/A
7:30 am30 °FPassing clouds.2 mph86%30.24 "HgN/A
6:30 am32 °FClear.No wind87%30.24 "Hg10 mi
5:30 am32 °FClear.No wind87%30.24 "Hg10 mi
5:30 pm
Sun, Dec 4
52 °FSunny.5 mph28%30.24 "Hg10 mi
4:30 pm57 °FSunny.9 mph18%30.24 "Hg10 mi
4:00 pm59 °FSunny.7 mph20%30.24 "Hg10 mi
Weather by CustomWeather, © 2016

See weather overviewHow to use our weather pages